New Castle, PA

3:41 PM EST on February 26, 2017 (GMT -0500)
New Castle Municipal

Weather History for KUCP - March, 2013

Change the Weather History Date:

Wednesday, March 6, 2013

  Actual Average Record
Temperature  
Mean Temperature 36 °F -  
Max Temperature 41 °F 46 °F 75 °F (1992)
Min Temperature 30 °F 24 °F -6 °F (2015)
Degree Days  
Heating Degree Days 30    
Moisture  
Dew Point 27 °F    
Average Humidity 80    
Maximum Humidity 100    
Minimum Humidity 55    
Precipitation  
Precipitation 0.06 in - - ()
Sea Level Pressure  
Sea Level Pressure 29.94 in    
Wind  
Wind Speed 8 mph (ENE)    
Max Wind Speed 15 mph    
Max Gust Speed -    
Visibility 6 miles    
Events Snow    
Averages and records for this station are not official NWS values.
T = Trace of Precipitation, MM = Missing Value Source: NWS Daily Summary

Daily Weather History Graph

Daily Weather History Graph

Search for Another Location

Airport or City:

Trip Planner

Search our weather history database for the weather conditions in past years. The results will help you decide how hot, cold, wet, or windy it might be!

Date:

Astronomy

Mar. 06, 2013 Rise Set
Actual Time 6:47 AM EST 6:18 PM EST
Civil Twilight 6:20 AM EST 6:46 PM EST
Nautical Twilight 5:48 AM EST 7:17 PM EST
Astronomical Twilight 5:16 AM EST 7:50 PM EST
Moon 2:57 AM EST (3/6) 12:56 PM EST (3/6)
Length of Visible Light 12h 25m
Length of Day
11h 31m
Waning Crescent, 30% of the Moon is Illuminated
Mar 6
Waning Crescent
Mar 11
New
Mar 19
First Quarter
Mar 27
Full
Apr 3
Last Quarter

Hourly Weather History & Observations

Time (EST) Temp. Windchill Dew Point Humidity Pressure Visibility Wind Dir Wind Speed Gust Speed Precip Events Conditions
12:56 AM 34.0 °F 24.2 °F 22.1 °F 62% 29.77 in 10.0 mi East 15.0 mph - N/A   Mostly Cloudy
1:49 AM 33.8 °F 26.4 °F 23.0 °F 65% 29.70 in 10.0 mi ESE 9.2 mph - 0.00 in   Overcast
1:56 AM 34.0 °F 26.0 °F 24.1 °F 67% 29.78 in 9.0 mi East 10.4 mph - 0.00 in   Overcast
2:56 AM 32.0 °F 23.0 °F 28.0 °F 85% 29.79 in 3.0 mi East 11.5 mph - 0.00 in Snow Light Snow
2:59 AM 32.0 °F 23.6 °F 28.4 °F 87% 29.72 in 2.5 mi East 10.4 mph - 0.00 in Snow Light Snow
3:04 AM 30.2 °F 21.9 °F 28.4 °F 93% 29.72 in 1.8 mi ESE 9.2 mph - 0.00 in Snow Light Snow
3:10 AM 30.2 °F 23.4 °F 28.4 °F 93% 29.72 in 1.2 mi East 6.9 mph - 0.00 in Snow Light Snow
3:20 AM 30.2 °F 21.9 °F 28.4 °F 93% 29.73 in 1.0 mi East 9.2 mph - 0.00 in Snow Light Snow
3:56 AM 31.1 °F 23.1 °F 29.1 °F 92% 29.81 in 0.8 mi East 9.2 mph - 0.02 in Snow Light Snow
4:22 AM 30.2 °F 24.3 °F 30.2 °F 100% 29.76 in 1.0 mi ESE 5.8 mph - 0.02 in Snow Light Snow
4:46 AM 30.2 °F 26.7 °F 30.2 °F 100% 29.77 in 1.0 mi East 3.5 mph - 0.03 in Snow Light Snow
4:56 AM 31.1 °F 27.7 °F 30.0 °F 96% 29.85 in 1.2 mi ENE 3.5 mph - 0.03 in Snow Light Snow
5:23 AM 30.2 °F 26.7 °F 30.2 °F 100% 29.79 in 1.2 mi NE 3.5 mph - 0.01 in Snow Light Snow
5:30 AM 30.2 °F 26.7 °F 30.2 °F 100% 29.80 in 1.5 mi NE 3.5 mph - 0.01 in Snow Light Snow
5:47 AM 30.2 °F 26.7 °F 30.2 °F 100% 29.81 in 1.8 mi NE 3.5 mph - 0.01 in Snow Light Snow
5:56 AM 31.1 °F 27.7 °F 30.0 °F 96% 29.89 in 2.0 mi ENE 3.5 mph - 0.01 in Snow Light Snow
6:11 AM 30.2 °F 26.7 °F 30.2 °F 100% 29.82 in 3.0 mi ENE 3.5 mph - 0.00 in Snow Light Snow
6:31 AM 30.2 °F 25.4 °F 30.2 °F 100% 29.83 in 5.0 mi East 4.6 mph - 0.00 in   Mostly Cloudy
6:56 AM 31.1 °F 26.4 °F 29.1 °F 92% 29.92 in 6.0 mi East 4.6 mph - 0.00 in   Overcast
7:56 AM 31.1 °F 27.7 °F 28.0 °F 88% 29.96 in 7.0 mi ENE 3.5 mph - 0.00 in   Scattered Clouds
8:56 AM 32.0 °F 28.7 °F 29.1 °F 89% 30.00 in 6.0 mi NNE 3.5 mph - 0.00 in   Mostly Cloudy
9:56 AM 34.9 °F 30.8 °F 28.0 °F 76% 30.01 in 10.0 mi NNE 4.6 mph - N/A   Clear
10:56 AM 38.8 °F 32.6 °F 26.1 °F 60% 30.03 in 10.0 mi ENE 9.2 mph - N/A   Partly Cloudy
11:56 AM 41.0 °F 34.7 °F 28.0 °F 60% 30.04 in 10.0 mi ENE 10.4 mph - N/A   Mostly Cloudy
12:56 PM 39.9 °F 33.4 °F 26.1 °F 58% 30.06 in 10.0 mi NNE 10.4 mph - N/A   Overcast
1:56 PM 39.9 °F 35.1 °F 25.2 °F 56% 30.07 in 10.0 mi NNE 6.9 mph - N/A   Overcast
2:56 PM 38.8 °F 34.6 °F 25.2 °F 58% 30.09 in 10.0 mi NNE 5.8 mph - N/A   Overcast
3:56 PM 38.8 °F 32.6 °F 24.1 °F 55% 30.11 in 10.0 mi NE 9.2 mph - N/A   Overcast
4:56 PM 37.9 °F 33.5 °F 25.2 °F 60% 30.13 in 10.0 mi NNE 5.8 mph - N/A   Overcast
5:56 PM 37.9 °F 32.1 °F 24.1 °F 57% 30.14 in 10.0 mi NE 8.1 mph - N/A   Overcast
6:56 PM 36.9 °F 31.4 °F 24.1 °F 60% 30.16 in 10.0 mi NE 6.9 mph - N/A   Overcast
7:56 PM 36.0 °F 32.1 °F 26.1 °F 67% 30.18 in 10.0 mi NNE 4.6 mph - N/A   Overcast
8:56 PM 34.0 °F 29.8 °F 27.1 °F 76% 30.19 in 10.0 mi NW 4.6 mph - N/A   Overcast
9:56 PM 32.9 °F 27.5 °F 27.1 °F 79% 30.20 in 10.0 mi NW 5.8 mph - N/A   Overcast
10:56 PM 32.0 °F - 27.1 °F 82% 30.20 in 10.0 mi Calm Calm - N/A   Overcast
11:56 PM 32.0 °F - 28.0 °F 85% 30.19 in 10.0 mi Calm Calm - N/A   Overcast